Location: Unspecified
(28.0638°N, 0.0000°E)
Time: 02:25:34
(UTC+00:00)

GOMX 1 - Visible Passes

Search period start: 04 April 2026 00:00
Search period end: 14 April 2026 00:00
Orbit: 583 x 816 km, 97.7° (Epoch: 28 March)

Date Brightness Start Highest point End Pass type
(mag) Time Alt. Az. Time Alt. Az. Time Alt. Az.
5 Apr ? 03:09:29 13° N 03:09:29 13° N 03:09:57 10° N visible
6 Apr ? 03:51:43 11° NNW 03:51:43 11° NNW 03:51:51 10° NNW visible
7 Apr ? 02:55:08 13° NNE 02:55:08 13° NNE 02:55:45 10° NNE visible
8 Apr ? 03:37:22 14° NNW 03:37:22 14° NNW 03:38:01 10° NNW visible
9 Apr ? 02:40:47 13° NNE 02:40:47 13° NNE 02:41:22 10° NNE visible
10 Apr ? 03:23:01 17° N 03:23:01 17° N 03:24:04 10° N visible
11 Apr ? 02:26:25 11° NE 02:26:25 11° NE 02:26:39 10° NE visible
11 Apr ? 04:05:15 11° NW 04:05:15 11° NW 04:05:31 10° NW visible
12 Apr ? 03:08:38 20° N 03:08:38 20° N 03:09:59 10° N visible
13 Apr ? 03:50:52 16° NNW 03:50:52 16° NNW 03:51:49 10° NNW visible
